{"data":{"norad_id":64911,"epoch":"2026-09-20T23:21:30.417408Z","epoch_age_seconds":83354,"freshness":"FRESH","line1":"1 64911U 25157H   26263.97326872  .00023325  00000+0  69924-3 0  9991","line2":"2 64911  53.1575 155.6879 0001185  83.0754 277.0383 15.34403571 66063","mean_motion":15.34403571,"eccentricity":0.0001185,"inclination_deg":53.1575,"raan_deg":155.6879,"arg_perigee_deg":83.0754,"mean_anomaly_deg":277.0383,"bstar":0.00069924,"rev_number":6606,"period_min":93.847539670513,"perigee_km":461.8819881524,"apogee_km":463.50326477387,"semimajor_km":6840.8296264631,"source":"CELESTRAK","updated_at":"2026-09-21T09:00:35.455122Z"}}